GONETS-M 17 (46486 NORAD) Tracking and Keplerian Element Data

This shows tracking and keplerian element data for the satellite.

Feedback or suggestion? Click here.




ElementValue
Catalog46486
NameGONETS-M 17
Epoch Orbit797
Epoch Day336.66401697
Epoch Year2020
RAAN166.295
Inclination82.4967
Eccentricity0.0023805
Argument of Perigee127.0065
Mean Anonmoly233.3197
Mean Motion12.42887464
Decay Rate1.5E-07
L11 46486U 20068A 20336.66401697 .00000015 00000-0 34750-4 0 9996
L22 46486 82.4967 166.2950 0023805 127.0065 233.3197 12.42887464 7971

Live tracking and technical data element details for GONETS-M 17 (NORAD 46486). GONETS-M 17 can be tracked NOW for your location showing map with azimuth and elevation plus other details from your city location.

Track the satellite on the map from your city or location and see movement details for azimuth, elevation, latitude, longitude, range, height, and movement on the map or in text.







IsCatalogInMostPopularTable: catalog: 46486, numindb: 20
Update: records affected: 1



GetName: 46486 GONETS-M 17

Hit Count: updated at: Thu, 03 Dec 2020 06:54:42 GMT